Regional Weather Roundup
Issued by NWS State College, PA

Home | Current Version | Previous Version | Text Only | Print | Product List | Glossary On
Versions: 1 2 3 4 5 6 7 8 9 10 11 12 13 14 15 16 17 18 19 20 21 22 23 24 25 26 27 28 29 30 31 32 33 34 35 36 37 38 39 40 41 42 43 44 45 46 47 48 49 50
000
ASUS41 KCTP 281810
RWRCTP

REGIONAL WEATHER ROUNDUP
NATIONAL WEATHER SERVICE STATE COLLEGE PA
200 PM EDT SAT MAR 28 2015

Note: "fair" indicates few or no clouds below 12,000 feet with no
significant weather and/or obstructions to visibility.

* = STATION THAT DOES NOT REPORT PRECIPITATION /E.G. RAIN...SNOW...ETC/
    THUNDER OR FOG.

PAZ002>004-007>009-013>016-020>023-029>032-281900-
WESTERN PENNSYLVANIA

CITY           SKY/WX    TMP DP  RH WIND       PRES   REMARKS
ERIE           SUNNY     22   3  44 W12       30.22S WCI  10
MEADVILLE      PTSUNNY   20   8  60 NW8G21    30.14R WCI  10
FRANKLIN*      CLOUDY    21   7  53 NW13G18   30.12S WCI   9
NEW CASTLE     MOCLDY    22  10  59 W13       30.18S WCI  10
BEAVER COUNTY  CLOUDY    23   9  54 NW13G20   30.15S WCI  11
BUTLER*        CLOUDY    21   9  58 NW8G16    30.15S WCI  12
PITTSBURGH INT PTSUNNY   24   8  50 NW15      30.15R WCI  11
PITTSBURGH     CLOUDY    22   4  46 NW8G18    30.13S WCI  12
INDIANA*       CLOUDY    21  10  63 NW15      30.12R WCI   8
LATROBE        PTSUNNY   23   9  54 NW14      30.13S WCI  11
WASHINGTON CO* CLOUDY    25   9  50 N12       30.16S WCI  14
$$

PAZ004>006-010>012-017>019-024>028-033>037-041-042-045-046-049>053-281900-
CENTRAL PENNSYLVANIA

CITY           SKY/WX    TMP DP  RH WIND       PRES   REMARKS
BRADFORD       MOSUNNY   20   6  55 N18G26    29.99R WCI   5
DUBOIS         CLOUDY    23   9  55 NW16      30.01S WCI  10
CLEARFIELD     CLOUDY    24  10  55 NW15G22   30.01F WCI  11
JOHNSTOWN      LGT SNOW  18   9  68 W18G25    29.98R WCI   2
ALTOONA        CLOUDY    25   8  48 NW21G28   30.01R WCI  11
STATE COLLEGE  LGT SNOW  27  12  54 NW17      29.99S WCI  14
WILLIAMSPORT   CLOUDY    30   8  39 N13G23    30.00S
SELINSGROVE    CLOUDY    32  14  47 N16G25    30.00S
FT INDIANTOWN  CLOUDY    32  10  40 W16G24    29.96S
CAPITAL CITY   CLOUDY    31  12  45 NW17G24   29.99F
HARRISBURG     PTSUNNY   32  16  51 NW20G30   29.98F
YORK           CLOUDY    31  15  52 NW15G23   29.98S
$$

PAZ038>040-043-044-047-048-054-055-060>062-067>071-281900-
EASTERN PENNSYLVANIA

CITY           SKY/WX    TMP DP  RH WIND       PRES   REMARKS
SCRANTON       CLOUDY    28  11  48 N15G26    29.92S
MOUNT POCONO   PTSUNNY   26  12  55 NW17G24   29.81R WCI  13
ALLENTOWN      CLOUDY    36  14  40 NW20G30   29.90S
QUAKERTOWN*    CLOUDY    36  16  44 NW14G21   29.89S
READING        PTSUNNY   35  13  40 NW12      29.92S
LANCASTER      CLOUDY    34  14  43 NW16G29   29.94S
COATESVILLE    MOCLDY    32  18  55 NW18G24   29.91S
POTTSTOWN      CLOUDY    36  15  42 N16G23    29.92R
BLUE BELL      MOSUNNY   37  21  52 NW9G17    29.88S
DOYLESTOWN     CLOUDY    36  16  44 NW14G25   29.87R
WILLOW GROVE   NOT AVBL
NORTH PHILA    CLOUDY    39  15  37 NW16G28   29.89S
PHILADELPHIA   CLOUDY    40  16  37 NW18G25   29.90S
$$


USA.gov is the U.S. government's official web portal to all federal, state and local government web resources and services.